| time (UTC) | temp F | wind direction | speed MPH | gust MPH | rain 1hr in | rain 24hr in | rain mn in | humidity % | barometer mb |
| 20260502210034 | 50 | 195 | 1.0 | 7.0 | 0.00 | 0.19 | 0.19 | 58 | 1011.4 |
| 20260502205528 | 50 | 184 | 1.0 | 3.0 | 0.00 | 0.19 | 0.19 | 58 | 1011.5 |
| 20260502205026 | 50 | 159 | 1.0 | 7.0 | 0.00 | 0.19 | 0.19 | 59 | 1011.6 |
| 20260502204526 | 50 | 314 | 2.0 | 7.0 | 0.00 | 0.19 | 0.19 | 61 | 1011.5 |
| 20260502204026 | 51 | 180 | 1.0 | 6.0 | 0.00 | 0.19 | 0.19 | 60 | 1011.4 |
| 20260502203526 | 51 | 213 | 3.0 | 7.0 | 0.00 | 0.19 | 0.19 | 59 | 1011.5 |
| 20260502203025 | 51 | 174 | 2.0 | 8.0 | 0.00 | 0.19 | 0.19 | 58 | 1011.5 |
| 20260502202525 | 51 | 355 | 2.0 | 9.0 | 0.00 | 0.19 | 0.19 | 59 | 1011.6 |
| 20260502202024 | 52 | 225 | 1.0 | 9.0 | 0.00 | 0.19 | 0.19 | 59 | 1011.5 |
| 20260502201524 | 52 | 234 | 1.0 | 6.0 | 0.00 | 0.19 | 0.19 | 59 | 1011.5 |
| 20260502201024 | 52 | 178 | 1.0 | 4.0 | 0.00 | 0.19 | 0.19 | 59 | 1011.6 |
| 20260502200524 | 52 | 173 | 0.0 | 6.0 | 0.00 | 0.19 | 0.19 | 61 | 1011.5 |
| 20260502200025 | 52 | 200 | 1.0 | 8.0 | 0.00 | 0.19 | 0.19 | 59 | 1011.7 |
| 20260502195523 | 53 | 200 | 3.0 | 8.0 | 0.00 | 0.19 | 0.19 | 59 | 1011.8 |
| 20260502195021 | 53 | 186 | 1.0 | 9.0 | 0.00 | 0.19 | 0.19 | 60 | 1011.7 |
| 20260502194520 | 54 | 202 | 3.0 | 5.0 | 0.00 | 0.19 | 0.19 | 59 | 1011.9 |
| 20260502194018 | 53 | 186 | 1.0 | 8.0 | 0.00 | 0.19 | 0.19 | 64 | 1012.0 |
| 20260502193531 | 52 | 153 | 1.0 | 4.0 | 0.00 | 0.19 | 0.19 | 65 | 1012.1 |
| 20260502193016 | 51 | 5 | 0.0 | 9.0 | 0.00 | 0.19 | 0.19 | 67 | 1012.2 |
| 20260502192513 | 50 | 279 | 4.0 | 9.0 | 0.00 | 0.19 | 0.19 | 66 | 1012.2 |
| 20260502192013 | 50 | 209 | 2.0 | 5.0 | 0.00 | 0.19 | 0.19 | 68 | 1012.4 |
| 20260502191512 | 49 | 208 | 2.0 | 7.0 | 0.00 | 0.19 | 0.19 | 66 | 1012.3 |
| 20260502191012 | 49 | 190 | 1.0 | 6.0 | 0.00 | 0.19 | 0.19 | 70 | 1012.4 |
| 20260502190512 | 49 | 198 | 2.0 | 8.0 | 0.00 | 0.19 | 0.19 | 68 | 1012.4 |
| 20260502190012 | 49 | 180 | 3.0 | 9.0 | 0.00 | 0.19 | 0.19 | 67 | 1012.5 |
| 20260502185511 | 49 | 203 | 1.0 | 10.0 | 0.00 | 0.19 | 0.19 | 68 | 1012.5 |
| 20260502185010 | 49 | 157 | 2.0 | 10.0 | 0.00 | 0.19 | 0.19 | 68 | 1012.5 |
| 20260502184510 | 50 | 287 | 1.0 | 7.0 | 0.00 | 0.19 | 0.19 | 69 | 1012.5 |
| 20260502184010 | 50 | 202 | 2.0 | 6.0 | 0.00 | 0.19 | 0.19 | 69 | 1012.6 |
| 20260502183509 | 50 | 227 | 2.0 | 5.0 | 0.00 | 0.19 | 0.19 | 70 | 1012.5 |
| 20260502183015 | 50 | 257 | 1.0 | 6.0 | 0.00 | 0.19 | 0.19 | 71 | 1012.5 |
| 20260502182508 | 50 | 227 | 2.0 | 6.0 | 0.00 | 0.19 | 0.19 | 71 | 1012.6 |
| 20260502182006 | 49 | 248 | 2.0 | 6.0 | 0.00 | 0.19 | 0.19 | 75 | 1012.6 |
| 20260502181509 | 48 | 186 | 2.0 | 6.0 | 0.00 | 0.19 | 0.19 | 74 | 1012.7 |
| 20260502181004 | 48 | 159 | 2.0 | 7.0 | 0.00 | 0.19 | 0.19 | 74 | 1012.8 |
| 20260502180504 | 48 | 198 | 2.0 | 8.0 | 0.00 | 0.19 | 0.19 | 74 | 1012.8 |
| 20260502164056 | 46 | 200 | 4.0 | 10.0 | 0.00 | 0.19 | 0.19 | 82 | 1013.0 |
| 20260502163555 | 45 | 239 | 3.0 | 10.0 | 0.00 | 0.19 | 0.19 | 84 | 1013.1 |
| 20260502163056 | 45 | 196 | 3.0 | 10.0 | 0.00 | 0.19 | 0.19 | 82 | 1013.2 |
| 20260502162554 | 45 | 64 | 2.0 | 11.0 | 0.00 | 0.19 | 0.19 | 82 | 1013.2 |
| 20260502162054 | 45 | 214 | 3.0 | 8.0 | 0.00 | 0.19 | 0.19 | 82 | 1013.2 |
| 20260502161554 | 45 | 152 | 3.0 | 11.0 | 0.00 | 0.19 | 0.19 | 82 | 1013.2 |
| 20260502161053 | 45 | 206 | 4.0 | 11.0 | 0.00 | 0.19 | 0.19 | 83 | 1013.2 |
| 20260502160552 | 45 | 215 | 2.0 | 10.0 | 0.00 | 0.19 | 0.19 | 82 | 1013.1 |
| 20260502152049 | 44 | 193 | 0.0 | 7.0 | 0.00 | 0.19 | 0.19 | 91 | 1013.3 |
| 20260502151600 | 44 | 150 | 1.0 | 8.0 | 0.00 | 0.19 | 0.19 | 92 | 1013.3 |
| 20260502151049 | 44 | 286 | 2.0 | 8.0 | 0.00 | 0.19 | 0.19 | 91 | 1013.2 |
| 20260502150551 | 44 | 164 | 3.0 | 10.0 | 0.00 | 0.19 | 0.19 | 91 | 1013.2 |
| 20260502130533 | 46 | 208 | 0.0 | 3.0 | 0.00 | 0.19 | 0.19 | 94 | 1013.0 |
| 20260502123530 | 45 | 168 | 1.0 | 4.0 | 0.00 | 0.19 | 0.19 | 96 | 1013.1 |
| 20260502123030 | 45 | 167 | 0.0 | 3.0 | 0.00 | 0.19 | 0.19 | 96 | 1013.0 |
| 20260502122532 | 45 | 167 | 0.0 | 3.0 | 0.00 | 0.19 | 0.19 | 96 | 1013.1 |
| 20260502122033 | 45 | 167 | 1.0 | 3.0 | 0.00 | 0.19 | 0.19 | 96 | 1013.1 |
| 20260502121533 | 44 | 165 | 1.0 | 5.0 | 0.01 | 0.19 | 0.19 | 96 | 1013.0 |
| 20260502121029 | 44 | 170 | 2.0 | 6.0 | 0.01 | 0.19 | 0.19 | 96 | 1013.0 |
| 20260502120529 | 44 | 136 | 0.0 | 2.0 | 0.01 | 0.19 | 0.19 | 97 | 1013.0 |
| 20260502115528 | 44 | 136 | 1.0 | 3.0 | 0.01 | 0.19 | 0.19 | 97 | 1013.1 |
| 20260502115027 | 44 | 171 | 0.0 | 2.0 | 0.01 | 0.19 | 0.19 | 97 | 1013.1 |
| 20260502114527 | 43 | 171 | 0.0 | 2.0 | 0.02 | 0.19 | 0.19 | 97 | 1013.1 |
| 20260502114027 | 43 | 171 | 0.0 | 3.0 | 0.03 | 0.19 | 0.19 | 97 | 1013.1 |
| 20260502113527 | 43 | 171 | 1.0 | 3.0 | 0.03 | 0.19 | 0.19 | 97 | 1013.1 |
| 20260502113028 | 43 | 124 | 1.0 | 3.0 | 0.04 | 0.19 | 0.19 | 97 | 1013.2 |
| 20260502112525 | 43 | 124 | 0.0 | 2.0 | 0.04 | 0.19 | 0.19 | 96 | 1013.0 |
| 20260502112027 | 43 | 124 | 0.0 | 3.0 | 0.05 | 0.19 | 0.19 | 96 | 1012.9 |
| 20260502111523 | 43 | 124 | 0.0 | 1.0 | 0.05 | 0.18 | 0.18 | 96 | 1013.0 |
| 20260502111022 | 43 | 124 | 0.0 | 2.0 | 0.07 | 0.18 | 0.18 | 96 | 1013.0 |
| 20260502110521 | 43 | 124 | 0.0 | 2.0 | 0.07 | 0.18 | 0.18 | 96 | 1013.0 |
| 20260502110020 | 43 | 123 | 0.0 | 4.0 | 0.07 | 0.18 | 0.18 | 96 | 1013.0 |
| 20260502105519 | 43 | 123 | 1.0 | 4.0 | 0.07 | 0.18 | 0.18 | 96 | 1013.0 |
| 20260502105016 | 43 | 157 | 0.0 | 3.0 | 0.07 | 0.18 | 0.18 | 96 | 1013.2 |
| 20260502104522 | 43 | 157 | 0.0 | 3.0 | 0.06 | 0.17 | 0.17 | 96 | 1013.2 |
| 20260502104017 | 43 | 154 | 0.0 | 2.0 | 0.06 | 0.16 | 0.16 | 96 | 1013.2 |
| 20260502103517 | 43 | 154 | 0.0 | 3.0 | 0.07 | 0.16 | 0.16 | 97 | 1013.1 |
| 20260502103016 | 43 | 154 | 0.0 | 3.0 | 0.07 | 0.15 | 0.15 | 97 | 1013.1 |
| 20260502102515 | 42 | 198 | 0.0 | 2.0 | 0.07 | 0.14 | 0.14 | 96 | 1012.9 |
| 20260502102016 | 42 | 198 | 0.0 | 2.0 | 0.09 | 0.14 | 0.14 | 96 | 1012.8 |
| 20260502101534 | 42 | 200 | 0.0 | 1.0 | 0.07 | 0.12 | 0.12 | 96 | 1012.8 |
| 20260502101014 | 42 | 200 | 0.0 | 1.0 | 0.06 | 0.11 | 0.11 | 96 | 1012.5 |
| 20260502100514 | 42 | 200 | 0.0 | 0.0 | 0.06 | 0.11 | 0.11 | 96 | 1012.5 |
| 20260502091511 | 42 | 207 | 0.0 | 0.0 | 0.00 | 0.05 | 0.05 | 96 | 1012.5 |
| 20260502091012 | 42 | 207 | 0.0 | 0.0 | 0.00 | 0.05 | 0.05 | 96 | 1012.4 |
| 20260502090510 | 42 | 207 | 0.0 | 0.0 | 0.00 | 0.05 | 0.05 | 96 | 1012.6 |
| 20260502071502 | 43 | 163 | 0.0 | 0.0 | 0.02 | 0.03 | 0.03 | 95 | 1013.0 |
| 20260502071002 | 43 | 163 | 0.0 | 0.0 | 0.02 | 0.03 | 0.03 | 95 | 1012.8 |
| 20260502070600 | 43 | 163 | 0.0 | 0.0 | 0.02 | 0.03 | 0.03 | 95 | 1012.8 |
| 20260502070130 | 43 | 163 | 0.0 | 0.0 | 0.02 | 0.03 | 0.03 | 95 | 1012.8 |
| 20260502065600 | 43 | 163 | 0.0 | 0.0 | 0.02 | 0.03 | 0.03 | 95 | 1012.8 |
| 20260502065058 | 43 | 163 | 0.0 | 0.0 | 0.02 | 0.03 | 0.03 | 94 | 1012.7 |
| 20260502064559 | 43 | 163 | 0.0 | 0.0 | 0.02 | 0.03 | 0.03 | 94 | 1012.9 |
| 20260502064058 | 43 | 163 | 0.0 | 1.0 | 0.02 | 0.03 | 0.03 | 94 | 1012.9 |
| 20260502063558 | 43 | 163 | 0.0 | 1.0 | 0.01 | 0.02 | 0.02 | 94 | 1012.8 |
| 20260502063100 | 43 | 163 | 0.0 | 1.0 | 0.00 | 0.01 | 0.01 | 94 | 1012.9 |
| 20260502062559 | 43 | 163 | 0.0 | 1.0 | 0.00 | 0.01 | 0.01 | 94 | 1012.8 |
| 20260502062056 | 43 | 163 | 0.0 | 1.0 | 0.00 | 0.01 | 0.01 | 94 | 1013.0 |
| 20260502061606 | 43 | 163 | 0.0 | 1.0 | 0.00 | 0.01 | 0.01 | 93 | 1013.2 |
| 20260502061055 | 43 | 163 | 0.0 | 0.0 | 0.00 | 0.01 | 0.01 | 93 | 1012.9 |
| 20260502060556 | 43 | 163 | 0.0 | 0.0 | 0.00 | 0.01 | 0.01 | 93 | 1013.1 |
| 20260502060057 | 43 | 163 | 0.0 | 1.0 | 0.00 | 0.01 | 0.01 | 93 | 1013.0 |
| 20260502055555 | 43 | 163 | 0.0 | 1.0 | 0.00 | 0.01 | 0.01 | 93 | 1012.9 |
| 20260502055055 | 44 | 163 | 0.0 | 2.0 | 0.01 | 0.01 | 0.01 | 93 | 1012.9 |
| 20260502054557 | 44 | 163 | 0.0 | 2.0 | 0.01 | 0.01 | 0.01 | 92 | 1012.8 |
| 20260502054052 | 44 | 163 | 0.0 | 0.0 | 0.01 | 0.01 | 0.01 | 92 | 1012.7 |
| 20260502053552 | 44 | 163 | 0.0 | 0.0 | 0.01 | 0.01 | 0.01 | 92 | 1012.9 |
| 20260502053051 | 44 | 163 | 0.0 | 0.0 | 0.01 | 0.01 | 0.01 | 91 | 1012.9 |
| 20260502052551 | 44 | 163 | 0.0 | 0.0 | 0.01 | 0.01 | 0.01 | 91 | 1012.9 |
| 20260502052053 | 44 | 163 | 0.0 | 0.0 | 0.01 | 0.01 | 0.01 | 90 | 1013.1 |
| 20260502051608 | 44 | 163 | 0.0 | 0.0 | 0.01 | 0.01 | 0.01 | 90 | 1013.1 |
| 20260502051049 | 44 | 163 | 0.0 | 0.0 | 0.01 | 0.01 | 0.01 | 89 | 1013.1 |
| 20260502050548 | 45 | 163 | 0.0 | 0.0 | 0.01 | 0.01 | 0.01 | 88 | 1013.1 |
| 20260502050048 | 45 | 163 | 0.0 | 0.0 | 0.01 | 0.01 | 0.01 | 88 | 1013.1 |
| 20260502045548 | 45 | 163 | 0.0 | 0.0 | 0.01 | 0.01 | 0.01 | 87 | 1013.2 |
| 20260502045046 | 45 | 163 | 0.0 | 0.0 | 0.00 | 0.00 | 0.00 | 85 | 1013.5 |
| 20260502044547 | 45 | 163 | 0.0 | 0.0 | 0.00 | 0.00 | 0.00 | 82 | 1013.6 |
| 20260502044044 | 45 | 163 | 0.0 | 0.0 | 0.00 | 0.00 | 0.00 | 80 | 1013.6 |
| 20260502043543 | 45 | 163 | 0.0 | 0.0 | 0.00 | 0.00 | 0.00 | 80 | 1013.5 |
| 20260502043045 | 45 | 163 | 0.0 | 0.0 | 0.00 | 0.00 | 0.00 | 80 | 1013.4 |
| 20260502042544 | 45 | 163 | 0.0 | 0.0 | 0.00 | 0.00 | 0.00 | 80 | 1013.4 |
| 20260502042043 | 45 | 163 | 0.0 | 0.0 | 0.00 | 0.00 | 0.00 | 80 | 1013.4 |
| 20260502041542 | 45 | 163 | 0.0 | 1.0 | 0.00 | 0.00 | 0.00 | 80 | 1013.4 |
| 20260502041040 | 45 | 163 | 0.0 | 2.0 | 0.00 | 0.00 | 0.00 | 80 | 1013.2 |
| 20260502040539 | 45 | 163 | 0.0 | 2.0 | 0.00 | 0.00 | 0.00 | 78 | 1013.0 |
| 20260502040050 | 45 | 163 | 0.0 | 0.0 | 0.00 | 0.00 | 0.00 | 77 | 1013.0 |
| 20260502035538 | 45 | 163 | 0.0 | 0.0 | 0.00 | 0.00 | 0.00 | 77 | 1013.1 |
| 20260502035038 | 45 | 163 | 0.0 | 0.0 | 0.00 | 0.00 | 0.00 | 77 | 1013.1 |
| 20260502034537 | 45 | 163 | 0.0 | 0.0 | 0.00 | 0.00 | 0.00 | 77 | 1013.1 |
| 20260502034039 | 45 | 163 | 0.0 | 0.0 | 0.00 | 0.00 | 0.00 | 76 | 1013.1 |
| 20260502033537 | 45 | 163 | 0.0 | 0.0 | 0.00 | 0.00 | 0.00 | 76 | 1013.2 |
| 20260502033037 | 45 | 163 | 0.0 | 0.0 | 0.00 | 0.00 | 0.00 | 74 | 1013.2 |
| 20260502032536 | 45 | 163 | 0.0 | 0.0 | 0.00 | 0.00 | 0.00 | 75 | 1013.2 |
| 20260502032036 | 45 | 163 | 0.0 | 0.0 | 0.00 | 0.00 | 0.00 | 74 | 1013.3 |
| 20260502031540 | 45 | 163 | 0.0 | 0.0 | 0.00 | 0.00 | 0.00 | 74 | 1013.2 |
| 20260502031036 | 45 | 163 | 0.0 | 0.0 | 0.00 | 0.00 | 0.00 | 74 | 1013.1 |
| 20260502030536 | 45 | 163 | 0.0 | 0.0 | 0.00 | 0.00 | 0.00 | 73 | 1013.3 |
| 20260502030036 | 45 | 163 | 0.0 | 0.0 | 0.00 | 0.00 | 0.00 | 72 | 1013.4 |
| 20260502025535 | 45 | 163 | 0.0 | 0.0 | 0.00 | 0.00 | 0.00 | 71 | 1013.4 |
| 20260502025035 | 45 | 163 | 0.0 | 0.0 | 0.00 | 0.00 | 0.00 | 71 | 1013.3 |
| 20260502024538 | 45 | 163 | 0.0 | 0.0 | 0.00 | 0.00 | 0.00 | 69 | 1013.3 |
| 20260502024035 | 46 | 163 | 0.0 | 0.0 | 0.00 | 0.00 | 0.00 | 70 | 1013.4 |
| 20260502023536 | 46 | 163 | 0.0 | 0.0 | 0.00 | 0.00 | 0.00 | 69 | 1013.4 |
| 20260502023042 | 46 | 163 | 0.0 | 0.0 | 0.00 | 0.00 | 0.00 | 68 | 1013.3 |
| 20260502022536 | 46 | 163 | 0.0 | 0.0 | 0.00 | 0.00 | 0.00 | 67 | 1013.2 |
| 20260502022038 | 46 | 163 | 0.0 | 0.0 | 0.00 | 0.00 | 0.00 | 69 | 1013.4 |
| 20260502021534 | 46 | 163 | 0.0 | 0.0 | 0.00 | 0.00 | 0.00 | 66 | 1013.4 |
| 20260502021035 | 47 | 163 | 0.0 | 0.0 | 0.00 | 0.00 | 0.00 | 66 | 1013.3 |
| 20260502020533 | 47 | 163 | 0.0 | 0.0 | 0.00 | 0.00 | 0.00 | 65 | 1013.3 |
| 20260502020038 | 47 | 163 | 0.0 | 0.0 | 0.00 | 0.00 | 0.00 | 63 | 1013.4 |
| 20260502015533 | 47 | 163 | 0.0 | 0.0 | 0.00 | 0.00 | 0.00 | 62 | 1013.5 |
| 20260502015033 | 48 | 163 | 0.0 | 0.0 | 0.00 | 0.00 | 0.00 | 62 | 1013.5 |
| 20260502014532 | 48 | 163 | 0.0 | 0.0 | 0.00 | 0.00 | 0.00 | 62 | 1013.5 |
| 20260502014032 | 49 | 163 | 0.0 | 0.0 | 0.00 | 0.00 | 0.00 | 61 | 1013.5 |
| 20260502013532 | 49 | 163 | 0.0 | 0.0 | 0.00 | 0.00 | 0.00 | 62 | 1013.4 |
| 20260502013051 | 49 | 163 | 0.0 | 0.0 | 0.00 | 0.00 | 0.00 | 60 | 1013.4 |
| 20260502012532 | 50 | 163 | 0.0 | 0.0 | 0.00 | 0.00 | 0.00 | 60 | 1013.3 |
| 20260502012034 | 50 | 163 | 0.0 | 0.0 | 0.00 | 0.00 | 0.00 | 58 | 1013.2 |
| 20260502011532 | 50 | 163 | 0.0 | 1.0 | 0.00 | 0.00 | 0.00 | 57 | 1013.2 |
| 20260502011031 | 51 | 163 | 0.0 | 3.0 | 0.00 | 0.00 | 0.00 | 56 | 1013.1 |
| 20260502010531 | 51 | 163 | 0.0 | 3.0 | 0.00 | 0.00 | 0.00 | 56 | 1013.1 |
| 20260502010034 | 51 | 52 | 0.0 | 1.0 | 0.00 | 0.00 | 0.00 | 57 | 1013.0 |
| 20260502005531 | 51 | 52 | 0.0 | 1.0 | 0.00 | 0.00 | 0.00 | 57 | 1012.9 |
| 20260502005031 | 51 | 52 | 0.0 | 1.0 | 0.00 | 0.00 | 0.00 | 55 | 1012.9 |
| 20260502004531 | 51 | 52 | 0.0 | 4.0 | 0.00 | 0.00 | 0.00 | 55 | 1012.9 |
| 20260502004030 | 51 | 52 | 1.0 | 4.0 | 0.00 | 0.00 | 0.00 | 54 | 1012.8 |
| 20260502003531 | 52 | 194 | 0.0 | 1.0 | 0.00 | 0.00 | 0.00 | 55 | 1012.8 |
| 20260502003030 | 52 | 194 | 0.0 | 1.0 | 0.00 | 0.00 | 0.00 | 56 | 1012.8 |
| 20260502002530 | 52 | 194 | 0.0 | 1.0 | 0.00 | 0.00 | 0.00 | 57 | 1012.6 |
| 20260502002030 | 52 | 194 | 0.0 | 2.0 | 0.00 | 0.00 | 0.00 | 57 | 1012.6 |
| 20260502001530 | 53 | 194 | 0.0 | 3.0 | 0.00 | 0.00 | 0.00 | 57 | 1012.5 |
| 20260502001031 | 53 | 174 | 1.0 | 3.0 | 0.00 | 0.00 | 0.00 | 54 | 1012.5 |
| 20260502000530 | 53 | 172 | 0.0 | 1.0 | 0.00 | 0.00 | 0.00 | 53 | 1012.4 |
| 20260502000030 | 54 | 172 | 0.0 | 2.0 | 0.00 | 0.00 | 0.00 | 53 | 1012.3 |
| 20260501235533 | 54 | 172 | 0.0 | 2.0 | 0.00 | 0.00 | 0.00 | 51 | 1012.2 |
| 20260501235028 | 54 | 171 | 0.0 | 0.0 | 0.00 | 0.00 | 0.00 | 52 | 1012.2 |
| 20260501234529 | 55 | 172 | 0.0 | 0.0 | 0.00 | 0.00 | 0.00 | 53 | 1012.1 |
| 20260501234030 | 55 | 171 | 0.0 | 0.0 | 0.00 | 0.00 | 0.00 | 50 | 1012.1 |
| 20260501233528 | 55 | 171 | 0.0 | 0.0 | 0.00 | 0.00 | 0.00 | 49 | 1012.0 |
| 20260501233030 | 55 | 172 | 0.0 | 1.0 | 0.00 | 0.00 | 0.00 | 49 | 1012.0 |
| 20260501232528 | 56 | 171 | 0.0 | 3.0 | 0.00 | 0.00 | 0.00 | 46 | 1011.9 |
| 20260501232027 | 56 | 209 | 0.0 | 3.0 | 0.00 | 0.00 | 0.00 | 46 | 1011.8 |
| 20260501231527 | 56 | 175 | 0.0 | 3.0 | 0.00 | 0.00 | 0.00 | 45 | 1011.8 |
| 20260501231027 | 56 | 175 | 0.0 | 6.0 | 0.00 | 0.00 | 0.00 | 44 | 1011.8 |
| 20260501230527 | 56 | 165 | 1.0 | 6.0 | 0.00 | 0.00 | 0.00 | 43 | 1011.7 |
| 20260501230035 | 57 | 180 | 0.0 | 3.0 | 0.00 | 0.00 | 0.00 | 44 | 1011.7 |
| 20260501225527 | 57 | 180 | 0.0 | 3.0 | 0.00 | 0.00 | 0.00 | 43 | 1011.6 |
| 20260501225027 | 57 | 166 | 0.0 | 4.0 | 0.00 | 0.00 | 0.00 | 43 | 1011.6 |
| 20260501224527 | 58 | 165 | 0.0 | 2.0 | 0.00 | 0.00 | 0.00 | 42 | 1011.6 |
| 20260501224026 | 58 | 165 | 0.0 | 6.0 | 0.00 | 0.00 | 0.00 | 42 | 1011.6 |
| 20260501223526 | 58 | 165 | 2.0 | 6.0 | 0.00 | 0.00 | 0.00 | 40 | 1011.5 |
| 20260501223027 | 58 | 192 | 0.0 | 5.0 | 0.00 | 0.00 | 0.00 | 42 | 1011.5 |
| 20260501222527 | 58 | 118 | 0.0 | 7.0 | 0.00 | 0.00 | 0.00 | 40 | 1011.5 |
| 20260501222029 | 58 | 163 | 1.0 | 7.0 | 0.00 | 0.00 | 0.00 | 41 | 1011.5 |
| 20260501221525 | 58 | 190 | 3.0 | 7.0 | 0.00 | 0.00 | 0.00 | 42 | 1011.5 |
| 20260501221025 | 58 | 165 | 3.0 | 6.0 | 0.00 | 0.00 | 0.00 | 41 | 1011.4 |
| 20260501220525 | 58 | 168 | 2.0 | 11.0 | 0.00 | 0.00 | 0.00 | 41 | 1011.5 |
| 20260501220049 | 58 | 190 | 3.0 | 11.0 | 0.00 | 0.00 | 0.00 | 39 | 1011.5 |
| 20260501215525 | 58 | 94 | 3.0 | 7.0 | 0.00 | 0.00 | 0.00 | 40 | 1011.5 |
| 20260501215024 | 59 | 196 | 0.0 | 2.0 | 0.00 | 0.00 | 0.00 | 41 | 1011.5 |
| 20260501214524 | 59 | 196 | 0.0 | 4.0 | 0.00 | 0.00 | 0.00 | 39 | 1011.4 |
| 20260501214024 | 59 | 196 | 2.0 | 6.0 | 0.00 | 0.00 | 0.00 | 40 | 1011.5 |
| 20260501213522 | 60 | 187 | 2.0 | 7.0 | 0.00 | 0.00 | 0.00 | 41 | 1011.5 |
| 20260501213023 | 59 | 169 | 2.0 | 7.0 | 0.00 | 0.00 | 0.00 | 41 | 1011.4 |
| 20260501212523 | 59 | 130 | 1.0 | 6.0 | 0.00 | 0.00 | 0.00 | 38 | 1011.4 |
| 20260501212022 | 59 | 230 | 3.0 | 6.0 | 0.00 | 0.00 | 0.00 | 39 | 1011.5 |
| 20260501211522 | 59 | 184 | 2.0 | 5.0 | 0.00 | 0.00 | 0.00 | 41 | 1011.5 |
| 20260501211024 | 58 | 195 | 1.0 | 8.0 | 0.00 | 0.00 | 0.00 | 39 | 1011.6 |
| 20260501210521 | 58 | 93 | 2.0 | 8.0 | 0.00 | 0.00 | 0.00 | 39 | 1011.5 |